This demonstration page uses our WeatherBlox Daily Observations layout. Learn more.

Left ArrowRight Arrow

38.80484, -77.04692

Hourly Observations for January 28, 2022

Temp ( °F °C ) Dew Point ( °F °C ) Humidity (%) Winds ( mph kmh ) Pressure ( in mb ) Visibility ( mi km ) Precip ( " mm )
12:52 am 00:52 Cloudy 33 0.6 20 -6.7 58 58 S 8 13 30.20 1023 10 16 0.00 0.00
1:52 am 01:52 Cloudy 33 0.6 20 -6.7 58 58 Calm 30.19 1022 10 16 0.00 0.00
2:52 am 02:52 Cloudy 33 0.6 18 -7.8 54 54 Calm 30.17 1022 10 16 0.00 0.00
3:52 am 03:52 Cloudy 32 0 21 -6.1 64 64 S 3 6 30.15 1021 10 16 0.00 0.00
4:52 am 04:52 Cloudy 32 0 20 -6.7 61 61 Calm 30.14 1021 10 16 0.00 0.00
5:52 am 05:52 Cloudy 32 0 22 -5.6 66 66 Calm 30.13 1020 10 16 0.00 0.00
6:52 am 06:52 Cloudy 33 0.6 20 -6.7 58 58 Calm 30.14 1021 10 16 0.00 0.00
7:52 am 07:52 Cloudy 33 0.6 20 -6.7 58 58 E 5 7 30.14 1021 10 16 0.00 0.00
8:52 am 08:52 Cloudy 35 1.7 21 -6.1 57 57 Calm 30.14 1021 10 16 0.00 0.00
9:52 am 09:52 Cloudy 37 2.8 18 -7.8 46 46 NE 3 6 30.14 1021 10 16 0.00 0.00
10:52 am 10:52 Cloudy 39 3.9 19 -7.2 45 45 NE 6 9 30.14 1021 10 16 0.00 0.00
11:52 am 11:52 Cloudy 41 5 20 -6.7 43 43 NE 7 11 30.11 1020 10 16 0.00 0.00
12:52 pm 12:52 Cloudy 40 4.4 23 -5 51 51 NE 7 11 30.06 1018 10 16 0.00 0.00
1:33 pm 13:33 Cloudy 40 4.4 24 -4.4 53 53 NNE 8 13 30.04 1017 10 16 0.00 0.00
1:52 pm 13:52 Cloudy 40 4.4 25 -3.9 55 55 NE 8 13 30.03 1017 10 16 0.00 0.00
2:52 pm 14:52 Cloudy with Light Snow 37 2.8 29 -1.7 73 73 ENE 10 17 30.01 1016 6 10 0.00 0.00
3:16 pm 15:16 Cloudy with Light Snow 36 2.2 31 -0.6 82 82 NNE 10 17 30.01 1016 4 6 0.01 0.25
3:47 pm 15:47 Cloudy with Light Snow 36 2 30 -1 81 81 ENE 7 11 30.01 1016 3 4 0.02 0.51
3:52 pm 15:52 Cloudy with Light Snow 35 1.7 32 0 89 89 ENE 8 13 30.01 1016 3 4 0.02 0.51
4:03 pm 16:03 Cloudy with Light Snow 35 1.7 31 -0.6 85 85 ENE 9 15 30.01 1016 2 3 0.01 0.25
4:16 pm 16:16 Cloudy with Light Snow 34 1.1 31 -0.6 89 89 NE 10 17 30.01 1016 2 3 0.01 0.25
4:24 pm 16:24 Cloudy with Light Snow 34 1.1 31 -0.6 89 89 NE 9 15 30.00 1016 1 1 0.02 0.51
4:52 pm 16:52 Cloudy with Light Snow 34 1.1 31 -0.6 89 89 NE 8 13 29.99 1016 1 1 0.02 0.51
5:52 pm 17:52 Cloudy with Light Snow 33 0.6 31 -0.6 92 92 NE 7 11 29.99 1016 1 1 0.02 0.51
6:13 pm 18:13 Cloudy with Light Snow 33 0.6 31 -0.6 92 92 NE 7 11 30.00 1016 1 1 0.00 0.00
6:30 pm 18:30 Cloudy with Light Snow 33 0.6 31 -0.6 92 92 NE 8 13 29.99 1016 1 1 0.01 0.25
6:52 pm 18:52 Cloudy with Light Snow 33 0.6 31 -0.6 92 92 NE 8 13 29.99 1016 1 1 0.02 0.51
7:02 pm 19:02 Cloudy with Light Snow 33 0.6 31 -0.6 92 92 NNE 7 11 30.00 1016 1 1 0.00 0.00
7:52 pm 19:52 Cloudy with Light Snow 33 0.6 31 -0.6 92 92 NNE 10 17 29.98 1015 1 1 0.01 0.25
8:52 pm 20:52 Cloudy with Light Snow 33 0.6 30 -1.1 89 89 NNE 13 20 29.97 1015 1 1 0.01 0.25
9:07 pm 21:07 Cloudy with Light Snow 33 0.6 30 -1.1 89 89 NNE 17 28 29.97 1015 1 1 0.01 0.25
9:31 pm 21:31 Cloudy with Light Snow 33 0.6 30 -1.1 89 89 NNE 13 20 29.97 1015 1 1 0.01 0.25
9:52 pm 21:52 Cloudy with Light Snow 33 0.6 30 -1.1 89 89 N 15 24 29.95 1014 1 1 0.01 0.25
10:46 pm 22:46 Cloudy with Light Snow 34 1 28 -2 81 81 N 14 22 29.94 1014 1 1 0.01 0.25
10:49 pm 22:49 Cloudy with Light Snow 34 1 28 -2 81 81 N 14 22 29.93 1014 2 3 0.01 0.25
10:52 pm 22:52 Cloudy with Light Snow 33 0.6 29 -1.7 85 85 N 16 26 29.93 1014 2 3 0.01 0.25
11:52 pm 23:52 Cloudy with Light Snow 33 0.6 28 -2.2 82 82 N 14 22 29.92 1013 3 4 0.00 0.00

Powered by AerisWeather